KI5MVM Weather Reports


time (UTC)temp
C
wind
direction
speed
KPH
gust
KPH
rain 1hr
cm
rain 24hr
cm
rain mn
cm
humidity
%
barometer
mb
20260510130639 21 338 3.2 3.2 0.00 0.00 0.00 100 1016.0
20260510130139 21 1 3.2 4.8 0.00 0.00 0.00 100 1016.0
20260510125640 21 6 3.2 6.4 0.00 0.00 0.00 100 1016.0
20260510125140 21 322 1.6 3.2 0.00 0.00 0.00 100 1016.0
20260510124639 21 329 1.6 3.2 0.00 0.00 0.00 99 1016.0
20260510124139 21 1 3.2 4.8 0.00 0.00 0.00 99 1016.0
20260510123639 20 13 4.8 4.8 0.00 0.00 0.00 99 1016.0
20260510123141 20 351 3.2 6.4 0.00 0.00 0.00 99 1016.0
20260510122641 20 344 1.6 3.2 0.00 0.00 0.00 99 1016.0
20260510122139 20 358 1.6 3.2 0.00 0.00 0.00 99 1015.0
20260510121640 20 351 0.0 1.6 0.00 0.00 0.00 99 1015.0
20260510121140 20 347 0.0 1.6 0.00 0.00 0.00 99 1015.0
20260510120639 20 13 1.6 1.6 0.00 0.00 0.00 99 1015.0
20260510120139 20 30 1.6 3.2 0.00 0.00 0.00 99 1015.0
20260510115639 20 348 1.6 1.6 0.00 0.00 0.00 99 1015.0
20260510115139 20 0 0.0 0.0 0.00 0.00 0.00 99 1015.0
20260510114639 20 303 1.6 1.6 0.00 0.00 0.00 99 1015.0
20260510114139 20 341 0.0 0.0 0.00 0.00 0.00 99 1015.0
20260510113639 20 329 0.0 1.6 0.00 0.00 0.00 99 1015.0
20260510113139 20 325 0.0 1.6 0.00 0.00 0.00 100 1015.0
20260510112639 20 290 0.0 0.0 0.00 0.00 0.00 100 1015.0
20260510112139 20 10 0.0 3.2 0.00 0.00 0.00 100 1015.0
20260510111640 20 36 1.6 1.6 0.00 0.00 0.00 100 1014.0
20260510111141 20 52 0.0 1.6 0.00 0.00 0.00 100 1014.0
20260510110639 20 0 0.0 0.0 0.00 0.00 0.00 100 1014.0
20260510110139 20 339 1.6 1.6 0.00 0.00 0.00 100 1014.0
20260510105639 20 0 0.0 0.0 0.00 0.00 0.00 100 1014.0
20260510105139 20 317 0.0 1.6 0.00 0.00 0.00 99 1014.0
20260510104639 20 96 1.6 3.2 0.00 0.00 0.00 100 1014.0
20260510104139 20 343 1.6 1.6 0.00 0.00 0.00 100 1014.0
20260510103639 20 348 0.0 0.0 0.00 0.00 0.00 100 1014.0
20260510103139 20 328 1.6 1.6 0.00 0.00 0.00 100 1014.0
20260510102639 20 292 0.0 1.6 0.00 0.00 0.00 100 1014.0
20260510102139 20 0 0.0 0.0 0.00 0.00 0.00 100 1014.0
20260510101639 20 338 3.2 3.2 0.00 0.00 0.00 100 1013.0
20260510101140 20 19 0.0 3.2 0.00 0.00 0.00 100 1013.0
20260510100640 20 358 1.6 3.2 0.00 0.00 0.00 100 1013.0
20260510100139 20 36 1.6 3.2 0.00 0.00 0.00 100 1013.0
20260510095639 20 297 0.0 1.6 0.00 0.00 0.00 100 1013.0
20260510095139 20 6 0.0 1.6 0.00 0.00 0.00 100 1013.0
20260510094640 20 320 0.0 1.6 0.00 0.00 0.00 100 1013.0
20260510094139 20 335 1.6 1.6 0.00 0.00 0.00 99 1013.0
20260510093639 20 0 0.0 0.0 0.00 0.00 0.00 99 1013.0
20260510093140 20 357 0.0 0.0 0.00 0.00 0.00 99 1013.0
20260510092639 20 357 3.2 3.2 0.00 0.00 0.00 99 1013.0
20260510092139 20 354 1.6 3.2 0.00 0.00 0.00 99 1013.0
20260510091640 20 7 4.8 6.4 0.00 0.00 0.00 99 1013.0
20260510091141 20 38 3.2 3.2 0.00 0.00 0.00 99 1013.0
20260510090639 20 24 3.2 4.8 0.00 0.00 0.00 99 1013.0
20260510090139 20 5 4.8 6.4 0.00 0.00 0.00 99 1013.0
20260510085640 20 343 3.2 4.8 0.00 0.00 0.00 99 1013.0
20260510085139 20 28 6.4 8.0 0.00 0.00 0.00 99 1013.0
20260510084639 20 20 4.8 8.0 0.00 0.00 0.00 99 1013.0
20260510084139 20 14 3.2 4.8 0.00 0.00 0.00 99 1013.0
20260510083640 20 15 3.2 4.8 0.00 0.00 0.00 99 1013.0
20260510083139 20 44 1.6 3.2 0.00 0.00 0.00 99 1013.0
20260510082639 20 10 1.6 3.2 0.00 0.00 0.00 99 1013.0
20260510082141 21 16 3.2 3.2 0.00 0.00 0.00 99 1013.0
20260510081640 21 27 4.8 4.8 0.00 0.00 0.00 98 1013.0
20260510081139 21 28 3.2 6.4 0.00 0.00 0.00 98 1013.0
20260510080639 21 3 3.2 3.2 0.00 0.00 0.00 98 1013.0
20260510080139 21 11 4.8 4.8 0.00 0.00 0.00 98 1013.0
20260510075640 20 18 1.6 1.6 0.00 0.00 0.00 98 1013.0
20260510075139 20 68 3.2 4.8 0.00 0.00 0.00 98 1013.0
20260510074640 20 12 3.2 3.2 0.00 0.00 0.00 98 1013.0
20260510074139 20 352 4.8 6.4 0.00 0.00 0.00 99 1013.0
20260510073640 20 19 3.2 6.4 0.00 0.00 0.00 99 1013.0
20260510073139 20 4 1.6 3.2 0.00 0.00 0.00 99 1013.0
20260510072639 20 17 1.6 3.2 0.00 0.00 0.00 99 1013.0
20260510072139 20 51 3.2 4.8 0.00 0.00 0.00 99 1012.0
20260510071639 20 15 1.6 1.6 0.00 0.00 0.00 100 1012.0
20260510071140 20 17 1.6 1.6 0.00 0.00 0.00 100 1012.0
20260510070639 20 11 0.0 1.6 0.00 0.00 0.00 100 1012.0
20260510070139 20 19 1.6 3.2 0.00 0.00 0.00 100 1013.0
20260510065641 20 352 0.0 3.2 0.00 0.00 0.00 100 1013.0
20260510065139 20 6 1.6 3.2 0.00 0.00 0.00 100 1013.0
20260510064639 20 33 1.6 3.2 0.00 0.00 0.00 100 1013.0
20260510064140 20 136 0.0 0.0 0.00 0.00 0.00 100 1013.0
20260510063640 20 30 3.2 3.2 0.00 0.00 0.00 99 1013.0
20260510063139 20 5 1.6 1.6 0.00 0.00 0.00 100 1013.0
20260510062639 20 3 0.0 1.6 0.00 0.00 0.00 100 1013.0
20260510062139 20 0 0.0 0.0 0.00 0.00 0.00 100 1013.0
20260510061639 20 0 0.0 0.0 0.00 0.00 0.00 100 1013.0
20260510061139 20 0 0.0 0.0 0.00 0.00 0.00 100 1013.0
20260510060639 20 10 3.2 3.2 0.00 0.00 0.00 100 1013.0
20260510060139 20 5 0.0 1.6 0.00 0.00 0.00 100 1013.0
20260510055639 20 23 3.2 4.8 0.00 0.00 0.00 100 1013.0
20260510055139 20 25 3.2 4.8 0.00 0.00 0.00 100 1013.0
20260510054639 20 25 1.6 1.6 0.00 0.00 0.00 100 1013.0
20260510054139 20 0 0.0 0.0 0.00 0.00 0.00 100 1013.0
20260510053642 20 345 0.0 1.6 0.00 0.00 0.00 100 1013.0
20260510053139 20 356 0.0 1.6 0.00 0.00 0.00 100 1013.0
20260510052639 20 0 0.0 0.0 0.00 0.00 0.00 100 1012.0
20260510052139 20 0 0.0 0.0 0.00 0.00 0.00 100 1013.0
20260510051639 20 0 0.0 0.0 0.00 0.00 0.00 100 1013.0
20260510051139 20 341 1.6 1.6 0.00 0.00 0.00 100 1013.0
20260510050639 20 274 0.0 1.6 0.00 0.00 0.00 100 1013.0
20260510050139 20 0 0.0 0.0 0.00 0.00 0.00 100 1013.0
20260510045640 20 0 0.0 0.0 0.00 0.00 4.09 100 1013.0
20260510045139 20 315 1.6 1.6 0.00 0.00 4.09 100 1013.0
20260510044639 20 0 0.0 0.0 0.00 0.00 4.09 100 1013.0
20260510044139 20 0 0.0 0.0 0.00 0.00 4.09 100 1013.0
20260510043639 20 0 0.0 0.0 0.00 0.00 4.09 99 1013.0
20260510043139 20 0 0.0 0.0 0.00 0.00 4.09 99 1013.0
20260510042639 20 312 1.6 1.6 0.00 0.00 4.09 99 1013.0
20260510042140 20 289 0.0 1.6 0.00 0.00 4.09 100 1013.0
20260510041641 20 307 1.6 1.6 0.00 0.00 4.09 100 1013.0
20260510041139 20 340 0.0 1.6 0.00 0.00 4.09 100 1013.0
20260510040639 20 3 0.0 1.6 0.00 0.00 4.09 100 1013.0
20260510040140 20 234 1.6 3.2 0.00 0.00 4.09 100 1013.0
20260510035640 20 332 1.6 3.2 0.00 0.00 4.09 99 1013.0
20260510035139 20 304 1.6 3.2 0.00 0.00 4.09 99 1013.0
20260510034640 20 304 1.6 3.2 0.00 0.00 4.09 99 1013.0
20260510034139 20 289 1.6 1.6 0.00 0.00 4.09 99 1013.0
20260510033639 20 11 0.0 0.0 0.00 0.00 4.09 99 1013.0
20260510033139 20 141 0.0 1.6 0.00 0.00 4.09 99 1013.0
20260510032640 20 263 1.6 1.6 0.00 0.00 4.09 99 1013.0
20260510031650 20 343 0.0 0.0 0.00 0.00 4.09 99 1014.0
20260510031139 20 225 0.0 3.2 0.00 0.00 4.09 99 1013.0
20260510030639 20 0 0.0 0.0 0.00 0.00 4.09 99 1014.0
20260510030142 20 0 0.0 0.0 0.00 0.00 4.09 99 1014.0
20260510025640 20 0 0.0 0.0 0.00 0.00 4.09 99 1014.0
20260510025139 20 0 0.0 0.0 0.00 0.00 4.09 99 1014.0
20260510024639 20 339 0.0 1.6 0.00 0.00 4.09 99 1014.0
20260510024139 20 0 0.0 0.0 0.00 0.00 4.09 99 1014.0
20260510023639 20 279 0.0 0.0 0.00 0.00 4.09 99 1013.0
20260510023139 20 256 0.0 0.0 0.00 0.00 4.09 99 1013.0
20260510022639 20 257 0.0 0.0 0.00 0.00 4.09 99 1013.0
20260510022139 20 282 0.0 1.6 0.00 0.00 4.09 99 1013.0
20260510021639 20 270 1.6 1.6 0.00 0.00 4.09 99 1013.0
20260510021139 20 240 3.2 3.2 0.00 0.00 4.09 99 1013.0
20260510020639 20 254 0.0 1.6 0.00 0.00 4.09 99 1013.0
20260510020140 20 233 0.0 1.6 0.00 0.00 4.09 99 1013.0
20260510015639 20 246 0.0 0.0 0.00 0.00 4.09 99 1013.0
20260510015139 20 281 0.0 3.2 0.00 0.00 4.09 99 1013.0
20260510014639 20 271 1.6 1.6 0.00 0.00 4.09 99 1013.0
20260510014139 20 318 1.6 3.2 0.00 0.00 4.09 99 1013.0
20260510013639 20 241 1.6 3.2 0.00 0.00 4.09 99 1013.0
20260510013139 20 314 0.0 0.0 0.00 0.00 4.09 99 1013.0
20260510012642 20 156 3.2 4.8 0.00 0.00 4.09 99 1012.0
20260510012139 20 1 1.6 3.2 0.00 0.00 4.09 99 1013.0
20260510011639 20 316 0.0 1.6 0.00 0.00 4.09 99 1012.0
20260510011139 20 271 1.6 3.2 0.00 0.00 4.09 99 1012.0
20260510010639 20 294 0.0 1.6 0.00 0.00 4.09 99 1012.0
20260510010139 20 255 3.2 4.8 0.00 0.00 4.09 99 1012.0
20260510005639 20 336 0.0 0.0 0.00 0.00 4.09 99 1012.0
20260510005139 20 255 1.6 3.2 0.00 0.00 4.09 99 1012.0
20260510004639 20 241 1.6 1.6 0.00 0.00 4.09 99 1012.0
20260510004142 20 315 0.0 1.6 0.00 0.00 4.09 99 1012.0
20260510003639 20 263 1.6 1.6 0.20 0.00 4.09 99 1012.0
20260510003139 20 312 1.6 1.6 0.00 0.00 4.09 99 1012.0
20260510002639 20 0 0.0 0.0 0.05 0.00 4.14 99 1012.0
20260510002139 20 307 0.0 1.6 0.00 0.00 4.11 99 1012.0
20260510001640 20 0 0.0 0.0 0.00 0.00 4.11 99 1012.0
20260510001140 20 0 0.0 0.0 0.00 0.00 4.11 99 1012.0
20260510000640 20 0 0.0 0.0 0.00 0.00 4.11 99 1012.0
20260510000140 20 228 0.0 1.6 0.00 0.00 4.11 99 1012.0
20260509235639 20 146 0.0 0.0 0.00 0.00 4.11 99 1012.0
20260509235140 20 243 0.0 3.2 0.00 0.00 4.11 99 1013.0
20260509234639 20 328 1.6 1.6 0.00 0.00 4.11 99 1012.0
20260509234139 20 70 0.0 1.6 0.00 0.00 4.11 99 1012.0
20260509233639 21 298 0.0 0.0 0.00 0.00 4.09 99 1013.0
20260509233139 21 245 0.0 0.0 0.00 0.00 4.09 99 1012.0
20260509232639 21 93 0.0 0.0 0.08 0.00 4.06 99 1012.0
20260509232139 21 339 0.0 1.6 0.33 0.00 4.04 99 1013.0
20260509231639 21 265 3.2 4.8 0.03 0.00 4.01 98 1013.0
20260509231139 21 279 0.0 1.6 0.08 0.00 4.01 99 1013.0
20260509230639 21 216 1.6 3.2 0.08 0.00 3.99 98 1013.0
20260509230139 21 0 0.0 0.0 0.10 0.00 3.99 98 1013.0
20260509225640 21 191 1.6 3.2 0.00 0.00 3.96 98 1013.0
20260509225139 21 254 0.0 0.0 0.00 0.00 3.96 98 1013.0
20260509224640 21 195 1.6 3.2 0.00 0.00 3.96 98 1012.0
20260509224139 21 0 0.0 0.0 0.00 0.00 3.96 98 1012.0
20260509223640 21 0 0.0 0.0 0.00 0.00 3.96 98 1012.0
20260509223140 21 257 0.0 1.6 0.00 0.00 3.96 98 1012.0
20260509222639 21 208 0.0 0.0 0.00 0.00 3.96 98 1012.0
20260509222140 21 292 1.6 1.6 0.00 0.00 3.96 98 1012.0
20260509221640 21 0 0.0 0.0 0.00 0.00 3.96 98 1011.0
20260509221139 21 51 0.0 0.0 0.00 0.00 3.96 98 1011.0
20260509220641 21 0 0.0 0.0 0.00 0.00 3.96 98 1012.0
20260509220140 21 335 0.0 0.0 0.00 0.00 3.96 98 1012.0
20260509215639 21 239 1.6 3.2 0.00 0.00 3.96 97 1012.0
20260509215139 21 325 0.0 0.0 0.05 0.00 3.96 97 1012.0
20260509214641 21 325 0.0 0.0 0.13 0.00 3.96 97 1012.0
20260509214139 20 357 1.6 3.2 0.08 0.00 3.96 97 1012.0
20260509213639 21 221 3.2 4.8 0.05 0.00 3.94 97 1012.0
20260509213139 21 280 1.6 3.2 0.00 0.00 3.94 97 1012.0
20260509212639 21 250 1.6 3.2 0.00 0.00 3.91 96 1012.0
20260509212139 21 292 1.6 1.6 0.00 0.00 3.91 96 1012.0
20260509211639 21 289 0.0 0.0 0.00 0.00 3.91 96 1011.0
20260509211139 21 297 1.6 1.6 0.00 0.00 3.91 96 1011.0
20260509210639 21 276 1.6 1.6 0.00 0.00 3.91 96 1011.0
20260509210141 21 267 1.6 4.8 0.00 0.00 3.94 96 1011.0
20260509205639 21 22 0.0 1.6 0.00 0.00 3.94 96 1011.0
20260509205139 21 271 1.6 3.2 0.00 0.00 3.94 96 1011.0
20260509204640 21 232 3.2 3.2 0.00 0.00 3.94 97 1011.0
20260509204140 21 232 1.6 3.2 0.00 0.00 3.94 98 1011.0
20260509203639 21 232 3.2 3.2 0.00 0.00 3.94 98 1011.0
20260509203139 21 232 1.6 3.2 0.00 0.00 3.94 99 1012.0
20260509202639 21 232 4.8 4.8 0.00 0.00 3.94 99 1012.0
20260509202140 20 231 6.4 6.4 0.00 0.00 3.94 99 1012.0
20260509201639 20 232 6.4 6.4 0.00 0.00 3.94 99 1012.0
20260509201140 20 231 4.8 6.4 0.05 0.00 3.94 99 1012.0
20260509200642 20 232 4.8 4.8 0.13 0.00 3.91 99 1013.0
20260509200139 20 232 4.8 6.4 0.15 0.00 3.94 99 1013.0
20260509195639 20 232 4.8 4.8 0.33 0.00 3.91 99 1013.0
20260509195142 20 232 4.8 4.8 0.41 0.00 3.86 99 1013.0
20260509194639 20 232 4.8 4.8 0.23 0.00 3.84 99 1013.0
20260509194139 20 232 3.2 3.2 0.36 0.00 3.81 99 1013.0
20260509193639 20 232 4.8 4.8 0.10 0.00 3.81 99 1013.0
20260509193139 20 232 4.8 6.4 0.20 0.00 3.78 99 1013.0
20260509192640 20 232 4.8 4.8 0.28 0.00 3.76 99 1013.0
20260509192141 20 232 6.4 6.4 0.41 0.00 3.76 99 1013.0
20260509191639 20 231 4.8 9.7 0.25 0.00 3.73 99 1013.0
20260509191141 20 232 6.4 9.7 0.66 0.00 3.68 99 1013.0
20260509190641 19 231 6.4 12.9 0.30 0.00 3.66 99 1013.0
20260509190141 19 232 9.7 20.9 0.23 0.00 3.68 99 1013.0
20260509185639 19 232 14.5 38.6 0.33 0.00 3.66 99 1013.0
20260509183139 19 231 6.4 8.0 0.05 0.00 3.56 99 1013.0
20260509181641 19 231 6.4 8.0 0.18 0.00 3.56 99 1013.0
20260509181141 19 232 6.4 6.4 0.23 0.00 3.53 99 1013.0
20260509180640 19 232 6.4 8.0 0.25 0.00 3.51 99 1013.0
20260509180141 19 232 8.0 8.0 0.10 0.00 3.58 99 1013.0
20260509175640 19 232 6.4 8.0 0.30 0.00 3.56 99 1013.0
20260509175141 19 232 6.4 6.4 0.10 0.00 3.53 99 1013.0
20260509174639 19 231 6.4 8.0 0.10 0.00 3.53 99 1013.0
20260509174139 19 231 8.0 9.7 0.03 0.00 3.53 99 1013.0
20260509173639 19 232 8.0 16.1 0.00 0.00 3.51 99 1013.0
20260509173139 19 231 12.9 27.4 0.10 0.00 3.51 99 1013.0
20260509171139 18 232 6.4 8.0 0.56 0.00 3.25 99 1013.0
20260509170641 18 231 6.4 6.4 0.08 0.00 3.23 99 1014.0
20260509170139 18 76 6.4 14.5 0.36 0.00 3.30 99 1014.0
20260509165641 18 67 4.8 8.0 0.53 0.00 3.28 99 1014.0
20260509164639 18 65 6.4 8.0 0.74 0.00 3.17 99 1014.0
20260509164139 19 70 6.4 8.0 1.50 0.00 3.12 99 1013.0
20260509163639 19 41 3.2 4.8 4.22 0.00 3.15 99 1014.0
20260509163139 19 165 3.2 3.2 5.77 0.00 2.69 98 1014.0
20260509162642 19 61 3.2 6.4 1.37 0.00 2.34 98 1014.0
20260509162139 19 114 3.2 6.4 0.74 0.00 1.98 98 1014.0
20260509161639 19 56 3.2 4.8 1.02 0.00 1.91 98 1014.0
20260509161141 19 108 3.2 3.2 0.91 0.00 1.80 98 1014.0
20260509160640 19 183 3.2 6.4 0.20 0.00 1.85 98 1014.0
20260509160139 20 113 4.8 11.3 0.18 0.00 1.91 98 1014.0
20260509155640 20 152 4.8 6.4 1.96 0.00 1.85 97 1014.0
20260509155139 20 130 8.0 11.3 1.91 0.00 1.68 97 1014.0
20260509154640 20 131 6.4 12.9 2.44 0.00 1.47 97 1014.0
20260509154141 20 139 6.4 9.7 0.03 0.00 1.42 96 1014.0
20260509153640 20 121 6.4 12.9 0.00 0.00 1.40 96 1014.0
20260509153141 20 141 4.8 9.7 0.00 0.00 1.40 96 1014.0
20260509152639 20 120 4.8 8.0 0.00 0.00 1.40 96 1013.0
20260509152139 20 133 6.4 9.7 0.00 0.00 1.35 96 1013.0
20260509151639 20 100 6.4 9.7 0.00 0.00 1.35 96 1014.0
20260509151142 20 126 8.0 16.1 0.08 0.00 1.35 96 1014.0
20260509150640 20 80 6.4 14.5 0.00 0.00 1.32 96 1014.0
20260509150139 20 75 6.4 9.7 0.00 0.00 1.78 96 1014.0
20260509145639 20 232 6.4 12.9 0.00 0.00 1.78 96 1013.0
20260509145140 20 84 3.2 6.4 0.00 0.00 1.78 97 1013.0
20260509144639 20 47 6.4 14.5 0.00 0.00 1.78 97 1013.0
20260509144140 20 55 8.0 17.7 0.00 0.00 1.78 97 1013.0
20260509143641 20 51 8.0 25.7 0.00 0.00 1.78 97 1013.0
20260509142639 20 22 8.0 9.7 0.00 0.00 1.78 98 1013.0
20260509142139 20 39 9.7 16.1 0.03 0.00 1.83 98 1013.0
20260509141639 20 36 9.7 14.5 0.10 0.00 1.83 98 1013.0
20260509141139 20 53 9.7 24.1 0.03 0.00 1.80 98 1014.0
20260509140639 20 51 4.8 8.0 0.18 0.00 1.78 98 1014.0
20260509140139 20 51 3.2 4.8 2.06 0.00 1.70 98 1014.0
20260509135639 20 51 4.8 6.4 0.25 0.00 1.65 98 1014.0
20260509135141 20 50 3.2 4.8 0.05 0.00 1.60 98 1014.0
20260509134640 20 51 3.2 3.2 0.10 0.00 1.60 98 1014.0
20260509134143 20 49 3.2 3.2 0.03 0.00 1.60 98 1014.0
20260509133639 20 59 4.8 6.4 0.48 0.00 1.37 98 1014.0
20260509133139 20 87 3.2 4.8 0.53 0.00 1.24 98 1014.0
20260509132640 20 87 3.2 6.4 1.80 0.00 1.19 97 1014.0
20260509132140 20 130 3.2 4.8 1.63 0.00 0.61 97 1014.0
20260509131639 20 131 3.2 6.4 2.31 0.00 0.51 96 1014.0
20260509131140 21 96 4.8 11.3 1.63 0.00 0.20 95 1013.0